Showing default

RADIO ROSTO, 23439

Orbit data source: Space-Track

RADIO ROSTO, 23439 is a payload satellite owned by NPO PM (CIS) in LEO that was launched on Mon, 26 Dec 1994 UTC via an ROKOT launch vehicle from the Tyuratam Missile And Space Complex (TTMTR). Payload-class satellites include a variety of spacecraft equipped with specific instruments for various scientific and technological missions. These include communications satellites like Starlink; space stations such as the ISS; scientific satellites like the Hubble; Earth observation satellites from companies like Planet Labs, Umbra, and HawkEye 360; GPS; miniature CubeSats for education and research; and military/defense satellites.

Loading next visibility...
Identifier
23439, 1994-085A
Orbit
LEO
Last TLE update
8 hours ago
Origin
Manufacturer
NPO PM
Mission
Partially operational Civil Communications
Bus & Motor
STRELA-1M, Unknown motor
Mass
70 kg wet, 70 kg dry
Launch date (UTC)
1994-12-26 (30 years ago)
Launch vehicle
ROKOT
Launch site
Tyuratam Missile And Space Complex (TTMTR)
Object type
Payload
Rocket body
Debris
Shape & HBR
Sphere, Unknown HBR
Radar Cross Section
0.785 m², Medium (>0.1 m² and < 1m²)

Expand to show TLE details & history

TLE from 8 hours ago
0 RADIO ROSTO
1 23439U 94085A   25128.95931487 -.00000054  00000-0 -33106-3 0  9998
2 23439  64.8161 236.9392 0145626  80.5590 281.1761 11.27581323250325
Epoch: 2025-05-08T23:01Z
Definitive object data (Epoch: 2025-05-08T23:01:24.804Z)
Latitude
-0.00006°
Longitude
24.56349°
Altitude
2,002.006 km
Speed
6.907 km/s
True Right ascension
15h 47m 45s
True Declination
0° 00' 00"
Sunlit
Object was in full shadow at TLE epoch
Visualization TLE readout
Latitude
-59.33558°
Longitude
-28.11637°
Altitude
2,152.069 km
Speed
6.793 km/s
Apparent Right ascension
07h 13m 51s
Apparent Declination
-72° 41' 22"
Sunlit
Object is in daylight
Visualization observer readout
Local Sidereal Time
15:15:27
Azimuth
201.987° SSW
Elevation
-46.726°
Doppler factor
1
Orbital elements
Apogee altitude
2,143.449 km
Perigee altitude
1,898.819 km
Semi-major axis
8,399.271 km
Eccentricity
0.0145626
Inclination
64.8161°
RAAN
236.9392°
Arg. of periapsis
80.559°
True anomaly
279.53342°
Mean anomaly
281.1761°
Eccentric anomaly
280.35531°
Mean motion
2.81956 °/min
BSTAR
-0.00033106
Orbital period
127.68 mins
Loading maneuver chart data...
Loading SW <> Apogee altitude chart data...
Loading historical data...
Loading historical data...
Loading historical data...
Loading historical data...
Loading historical data...
Loading historical data...
Loading historical data...

RADIO ROSTO Visibility forecast

Observer location: undefined°, undefined°

Span
Click to sort rows by Start time (UTC) header in descending order
Start Az.
Max El. time (UTC)
Max El. Az.
Max El.
End time (UTC)
End Az.
18 mins2025-05-09 07:36:30.444Z169.572° S2025-05-09 07:45:30.444Z110.405° ESE32.468°2025-05-09 07:54:30.444Z46.897° ENE
19 mins2025-05-09 09:48:30.444Z233.272° WSW2025-05-09 09:57:30.444Z306.975° NW40.726°2025-05-09 10:07:30.444Z26.88° NE
14 mins2025-05-09 12:06:30.444Z297.49° NW2025-05-09 12:12:30.444Z335.451° NNW20.759°2025-05-09 12:20:30.444Z25.095° NE
13 mins2025-05-09 14:24:30.444Z335.883° NNW2025-05-09 14:30:30.444Z12.522° NNE18.981°2025-05-09 14:37:30.444Z55.557° ENE
20 mins2025-05-09 16:37:30.444Z335.644° NNW2025-05-09 16:46:30.444Z40.563° NE36.998°2025-05-09 16:57:30.444Z119.632° SE
19 mins2025-05-09 18:50:30.444Z316.716° NNW2025-05-09 18:59:30.444Z246.187° WSW37.954°2025-05-09 19:09:30.444Z178.612° S
4 mins2025-05-10 07:02:30.444Z153.362° SSE2025-05-10 07:06:30.444Z132.465° SE22.525°2025-05-10 07:06:30.444Z132.465° SE
|